Flag for India Weather past 2 weeks in Chennai, Tamil Nadu, India

Now
93 °F

Scattered clouds.


Feels Like: 107 °F
Forecast: 82 / 94 °F
Wind: 7 mph from Southeast

Location: Madras / Minambakkam

Current Time: Sep 5, 2015 at 12:13:27 PM

Latest Report: Sep 5, 2015 at 11:40 AM


Visibility: 4 mi

Pressure: 29.86 "Hg

Humidity: 59%

Dew point: 77 °F

Location of ChennaiLocation

Historic Weather in Chennai — Graph

°F

Chennai temperature yesterday

Maximum temperature yesterday: 93 °F (at 11:10 AM)
Minimum temperature yesterday: 82 °F (at 5:40 AM)
Average temperature yesterday: 88 °F

Past Weeks' High & Low Weather Summary

 TemperatureHumidityPressure
High99 °F (Aug 30, 3:10 PM)94% (Aug 21, 9:10 PM)29.89 "Hg (Aug 21, 9:10 PM)
Low75 °F (Aug 22, 10:10 PM)44% (Aug 25, 3:10 PM)29.59 "Hg (Aug 26, 3:40 PM)
Average87 °F73%29.72 "Hg
* Reported Aug 21 10:40 AM — Sep 5 10:40 AM, Chennai, Weather by CustomWeather, © 2015

Note: Actual official high and low records may vary slightly from our data, if they occured in-between our weather recording intervals... More about our weather records

Advertising

Chennai weather history for previous 24 hours

 ConditionsComfort  
Time TempWeatherWind HumidityBarometerVisibility
10:40 AM
Sat, Sep 5
91 °FScattered clouds.8 mph67%29.89 "Hg4 mi
9:40 AM90 °FScattered clouds.2 mph71%29.89 "Hg4 mi
8:40 AM88 °FScattered clouds.9 mph75%29.89 "Hg4 mi
7:10 AM82 °FFog.3 mph94%29.86 "Hg3 mi
6:10 AM81 °FPassing clouds.No wind94%29.83 "Hg4 mi
5:40 AM82 °FPassing clouds.3 mph89%29.83 "Hg4 mi
4:40 AM82 °FPassing clouds.5 mph89%29.83 "Hg4 mi
4:10 AM82 °FPassing clouds.5 mph89%29.83 "Hg4 mi
3:40 AM82 °FPassing clouds.5 mph89%29.83 "Hg4 mi
2:40 AM84 °FPassing clouds.8 mph84%29.83 "Hg4 mi
2:10 AM84 °FPassing clouds.7 mph84%29.83 "Hg4 mi
1:40 AM84 °FPassing clouds.7 mph84%29.86 "Hg4 mi
1:10 AM84 °FPassing clouds.7 mph84%29.86 "Hg4 mi
12:40 AM84 °FPassing clouds.7 mph84%29.86 "Hg4 mi
12:10 AM86 °FPassing clouds.7 mph79%29.86 "Hg4 mi
11:40 PM
Fri, Sep 4
86 °FPassing clouds.7 mph79%29.86 "Hg4 mi
11:10 PM86 °FPassing clouds.9 mph79%29.86 "Hg4 mi
10:40 PM86 °FPassing clouds.9 mph84%29.89 "Hg4 mi
10:10 PM86 °FPassing clouds.12 mph84%29.86 "Hg4 mi
9:40 PM86 °FPassing clouds.9 mph79%29.89 "Hg4 mi
8:40 PM86 °FPassing clouds.9 mph79%29.86 "Hg4 mi
7:40 PM86 °FPassing clouds.9 mph79%29.83 "Hg4 mi
7:10 PM86 °FPassing clouds.8 mph79%29.80 "Hg4 mi
6:40 PM86 °FPassing clouds.9 mph79%29.77 "Hg4 mi
5:40 PM88 °FPassing clouds.10 mph70%29.77 "Hg4 mi
4:40 PM90 °FPassing clouds.13 mph67%29.74 "Hg4 mi
4:10 PM91 °FPassing clouds.13 mph63%29.74 "Hg4 mi
3:40 PM93 °FPassing clouds.13 mph63%29.74 "Hg4 mi
3:10 PM93 °FPassing clouds.12 mph59%29.74 "Hg4 mi
2:40 PM93 °FScattered clouds.12 mph63%29.77 "Hg4 mi
2:10 PM93 °FScattered clouds.12 mph63%29.77 "Hg4 mi
1:40 PM93 °FScattered clouds.8 mph63%29.77 "Hg4 mi
1:10 PM93 °FScattered clouds.9 mph59%29.80 "Hg4 mi
12:40 PM91 °FScattered clouds.10 mph63%29.80 "Hg4 mi
12:10 PM93 °FScattered clouds.7 mph56%29.83 "Hg4 mi
Weather by CustomWeather, © 2015

See weather overviewHow to use our weather pages